Location: Unspecified
(0.0000°N, 0.0000°E)
Time: 13:46:46
(UTC+00:00)

Envisat - Pass Details

Date: 01 April 2020
Orbit: 764 x 766 km, 98.1° (Epoch: 02 April)

Event Time Altitude Azimuth Distance (km) Brightness Sun altitude
Rises 19:07:13 0° 200° (SSW) 3,230 6.4 -15.8°
Reaches altitude 10° 19:10:24 10° 221° (SW) 2,301 5.9 -16.6°
Maximum altitude 19:13:24 16° 257° (WSW) 1,919 6.1 -17.4°
Drops below altitude 10° 19:16:24 10° 294° (WNW) 2,294 6.6 -18.1°
Sets 19:19:35 0° 316° (NW) 3,216 7.0 -18.9°
